Miscellaneous Local Product
Issued by NWS North Platte, NE

Home | Current Version | Previous Version | Graphics & Text | Print | Product List | Glossary On
Versions: 1 2 3 4 5 6 7 8 9 10 11 12 13 14 15 16 17 18 19 20 21 22 23 24 25 26 27 28 29 30 31 32 33 34 35 36 37 38 39 40 41 42 43 44 45 46 47 48 49 50
939
AXUS43 KLBF 230310
MISLBF


WESTERN AND NORTH CENTRAL NEBRASKA HOURLY WEATHER ROUNDUP
NATIONAL WEATHER SERVICE NORTH PLATTE NE
1000 PM CDT WED MAR 22 2017

NOTE: "FAIR" INDICATES FEW OR NO CLOUDS BELOW 12,000 FEET WITH NO
SIGNIFICANT WEATHER AND/OR OBSTRUCTIONS TO VISIBILITY.

NOTE: STATIONS NOT REPORTING VARIABLES SUCH AS SKY/WEATHER OR
PRESSURE ARE PROVIDED BY RAWS AND APRS NETWORKS AND ARE NOT UNDER
NATIONAL WEATHER SERVICE QUALITY CONTROL.

...OBSERVATIONS IN AND NEAR THE EASTERN PANHANDLE OF NEBRASKA...

CITY           SKY/WX    TMP DP  RH WIND       PRES   REMARKS
PINE RIDGE     CLEAR     56  37  49 S28G37    29.81R
CHADRON        CLOUDY    57  36  45 SE22G31   29.77S
ALLIANCE       CLOUDY    50  36  58 SE20G29   29.84S
SIDNEY         CLOUDY    51  37  58 S21       29.86S
CRESCENT LAKE    N/A     48  35  61 S13G21      N/A
$$

...OBSERVATIONS IN NORTHERN NEBRASKA AND FAR SOUTHERN SOUTH DAKOTA...

CITY           SKY/WX    TMP DP  RH WIND       PRES   REMARKS
WINNER         FAIR      50  29  44 S21G28    29.93R
VALENTINE      CLOUDY    46  29  51 S16       29.93R
THEDFORD       CLEAR     45  31  58 S16G22    29.96R
AINSWORTH      CLOUDY    44  31  59 S15       29.95S
O`NEILL        CLOUDY    48  23  36 SE17G23   30.00F
ORD            CLOUDY    49  22  34 S14       30.03F
BROKEN BOW     CLOUDY    48  26  42 S17G25    30.00F
VALENTINE NWR    N/A     44  29  57 S18         N/A
HALSEY           N/A     45  28  51 SE9G16      N/A
BUTTE            N/A     45  26  47 SE18G25     N/A
CHAMBERS         N/A     49  25  38 S6          N/A
EWING            N/A     46  26  45 S10G20      N/A
$$

...OBSERVATIONS IN SOUTHWEST NEBRASKA AND FAR NORTHEAST COLORADO...

CITY           SKY/WX    TMP DP  RH WIND       PRES   REMARKS
HOLYOKE        FAIR      52  37  58 SE18      29.91S
IMPERIAL       CLOUDY    45  31  58 SE18      29.94S
OGALLALA       CLOUDY    48  33  56 SE14G21   29.94R
NORTH PLATTE   CLOUDY    45  30  55 SE12      29.98F
MCCOOK         CLOUDY    47  32  56 SE13      30.00S
LEXINGTON      CLOUDY    47  28  46 SE10      30.02F
STAPLETON        N/A     42  32  67 CALM        N/A
GOTHENBURG       N/A     48  28  46 SE10        N/A
CALLAWAY         N/A     46  30  53 S18         N/A
$$

...OBSERVATIONS IN CENTRAL LINCOLN COUNTY AREA...

CITY           SKY/WX    TMP DP  RH WIND       PRES   REMARKS
N.P. AIRPORT   CLOUDY    45  30  55 SE12      29.98F
N.P. DOWNTOWN    N/A     44  32  62 MISG        N/A
N.P. SOUTHEAST   N/A     44  32  62 SE7         N/A
N.P. HILLCREST   N/A     44  33  64 SE13G20     N/A
$$

...SOME OBSERVATIONS FROM AROUND THE REGION...

CITY           SKY/WX    TMP DP  RH WIND       PRES   REMARKS
DENVER         CLOUDY    56  30  37 S14       29.85R
LIMON          CLOUDY    53  40  61 SE14      29.90S
ASPEN          CLOUDY    45  28  51 S6        29.95F
LARAMIE        CLOUDY    49  24  37 S16       29.91R
GILLETTE       CLOUDY    41  37  86 CALM      29.76S
CHEYENNE       CLOUDY    56  32  40 S3        29.88S
SCOTTSBLUFF    CLOUDY    55  35  47 SE16      29.82R
GRAND ISLAND   CLOUDY    51  24  34 SE15      30.08R
OMAHA          CLOUDY    46  24  42 SE20      30.18F
SIOUX FALLS    CLOUDY    39  27  62 SE20      30.13S WCI  29
PIERRE         CLOUDY    48  30  49 SE16      29.87S
RAPID CITY     CLOUDY    46  39  76 W3        29.78S
BISMARCK       PTCLDY    35  28  75 SE9       29.89F WCI  28
KANSAS CITY    CLOUDY    52  25  35 SE16      30.19F
HILL CITY      CLOUDY    49  37  63 SE8       30.03F
WICHITA        PTCLDY    52  39  61 E13       30.08S
DODGE CITY     CLOUDY    49  40  71 SE13      30.02R
OKLAHOMA CITY  CLOUDY    63  56  78 SE16      30.05R
DALLAS         CLEAR     73  61  65 SE12      30.05R
AMARILLO       CLEAR     58  49  72 SE14      29.99S
$$




USA.gov is the U.S. government's official web portal to all federal, state and local government web resources and services.